Time,TemperatureF,DewpointF,PressureIn,WindDirection,WindDirectionDegrees,WindSpeedMPH,WindSpeedGustMPH,Humidity,HourlyPrecipIn,Conditions,Clouds,dailyrainin,SoftwareType,DateUTC
2013-02-20 00:09:00,39.5,11.0,30.13,West,265,4.0,-999.0,31,-99.99,,,0.00,weatherlink.com 1.10,2013-02-20 05:09:00,
2013-02-20 00:24:00,38.9,11.0,30.14,WNW,286,4.0,-999.0,32,-99.99,,,0.00,weatherlink.com 1.10,2013-02-20 05:24:00,
2013-02-20 00:39:00,38.6,11.0,30.14,NW,313,2.0,-999.0,32,-99.99,,,0.00,weatherlink.com 1.10,2013-02-20 05:39:00,
2013-02-20 00:55:00,38.1,11.0,30.15,West,281,1.0,-999.0,33,-99.99,,,0.00,weatherlink.com 1.10,2013-02-20 05:55:00,
2013-02-20 01:10:00,37.8,12.0,30.15,West,279,0.0,-999.0,35,-99.99,,,0.00,weatherlink.com 1.10,2013-02-20 06:10:00,
2013-02-20 01:25:00,37.3,12.0,30.16,West,268,2.0,-999.0,35,-99.99,,,0.00,weatherlink.com 1.10,2013-02-20 06:25:00,
2013-02-20 01:40:00,36.8,11.0,30.15,West,281,0.0,-999.0,34,-99.99,,,0.00,weatherlink.com 1.10,2013-02-20 06:40:00,
2013-02-20 01:55:00,36.9,10.0,30.15,West,280,0.0,-999.0,33,-99.99,,,0.00,weatherlink.com 1.10,2013-02-20 06:55:00,
2013-02-20 02:10:00,36.5,12.0,30.14,WNW,288,0.0,-999.0,37,-99.99,,,0.00,weatherlink.com 1.10,2013-02-20 07:10:00,
2013-02-20 02:25:00,35.6,11.0,30.14,WNW,291,0.0,-999.0,36,-99.99,,,0.00,weatherlink.com 1.10,2013-02-20 07:25:00,
2013-02-20 02:40:00,35.6,10.0,30.14,NNW,330,6.0,-999.0,34,-99.99,,,0.00,weatherlink.com 1.10,2013-02-20 07:40:00,
2013-02-20 02:55:00,35.7,10.0,30.14,NNW,337,7.0,-999.0,35,-99.99,,,0.00,weatherlink.com 1.10,2013-02-20 07:55:00,
2013-02-20 03:10:00,36.0,11.0,30.14,WNW,296,2.0,-999.0,36,-99.99,,,0.00,weatherlink.com 1.10,2013-02-20 08:10:00,
2013-02-20 03:25:00,35.6,11.0,30.14,NNW,348,3.0,-999.0,36,-99.99,,,0.00,weatherlink.com 1.10,2013-02-20 08:25:00,
2013-02-20 03:41:00,36.1,9.0,30.14,NNW,327,4.0,-999.0,33,-99.99,,,0.00,weatherlink.com 1.10,2013-02-20 08:41:00,
2013-02-20 03:56:00,35.7,10.0,30.13,NNW,327,4.0,-999.0,35,-99.99,,,0.00,weatherlink.com 1.10,2013-02-20 08:56:00,
2013-02-20 04:11:00,35.5,10.0,30.13,NNW,335,0.0,-999.0,34,-99.99,,,0.00,weatherlink.com 1.10,2013-02-20 09:11:00,
2013-02-20 04:26:00,35.2,9.0,30.13,NW,309,2.0,-999.0,33,-99.99,,,0.00,weatherlink.com 1.10,2013-02-20 09:26:00,
2013-02-20 04:41:00,35.2,9.0,30.13,NNW,328,4.0,-999.0,33,-99.99,,,0.00,weatherlink.com 1.10,2013-02-20 09:41:00,
2013-02-20 04:56:00,34.9,10.0,30.14,NNW,332,5.0,-999.0,35,-99.99,,,0.00,weatherlink.com 1.10,2013-02-20 09:56:00,
2013-02-20 05:11:00,34.5,10.0,30.14,West,273,0.0,-999.0,36,-99.99,,,0.00,weatherlink.com 1.10,2013-02-20 10:11:00,
2013-02-20 05:26:00,34.1,10.0,30.14,North,4,1.0,-999.0,37,-99.99,,,0.00,weatherlink.com 1.10,2013-02-20 10:26:00,
2013-02-20 05:42:00,33.2,11.0,30.14,ESE,118,0.0,-999.0,39,-99.99,,,0.00,weatherlink.com 1.10,2013-02-20 10:42:00,
2013-02-20 05:56:00,32.2,12.0,30.14,WNW,283,0.0,-999.0,44,-99.99,,,0.00,weatherlink.com 1.10,2013-02-20 10:56:00,
2013-02-20 06:11:00,31.0,12.0,30.14,West,281,1.0,-999.0,46,-99.99,,,0.00,weatherlink.com 1.10,2013-02-20 11:11:00,
2013-02-20 06:27:00,29.3,12.0,30.15,West,281,0.0,-999.0,48,-99.99,,,0.00,weatherlink.com 1.10,2013-02-20 11:27:00,
2013-02-20 06:42:00,28.2,13.0,30.16,West,280,0.0,-999.0,53,-99.99,,,0.00,weatherlink.com 1.10,2013-02-20 11:42:00,
2013-02-20 06:57:00,27.5,13.0,30.16,WSW,244,0.0,-999.0,54,-99.99,,,0.00,weatherlink.com 1.10,2013-02-20 11:57:00,
2013-02-20 07:12:00,27.0,13.0,30.16,WSW,244,0.0,-999.0,55,-99.99,,,0.00,weatherlink.com 1.10,2013-02-20 12:12:00,
2013-02-20 07:27:00,26.9,14.0,30.16,WSW,243,0.0,-999.0,59,-99.99,,,0.00,weatherlink.com 1.10,2013-02-20 12:27:00,
2013-02-20 07:42:00,26.6,14.0,30.16,WSW,243,0.0,-999.0,60,-99.99,,,0.00,weatherlink.com 1.10,2013-02-20 12:42:00,
2013-02-20 07:57:00,26.5,14.0,30.17,South,178,0.0,-999.0,60,-99.99,,,0.00,weatherlink.com 1.10,2013-02-20 12:57:00,
2013-02-20 08:12:00,26.7,15.0,30.17,South,179,0.0,-999.0,61,-99.99,,,0.00,weatherlink.com 1.10,2013-02-20 13:12:00,
2013-02-20 08:27:00,27.2,15.0,30.16,South,179,0.0,-999.0,60,-99.99,,,0.00,weatherlink.com 1.10,2013-02-20 13:27:00,
2013-02-20 08:42:00,28.1,14.0,30.17,South,179,1.0,-999.0,57,-99.99,,,0.00,weatherlink.com 1.10,2013-02-20 13:42:00,
2013-02-20 08:58:00,29.0,13.0,30.18,South,179,0.0,-999.0,52,-99.99,,,0.00,weatherlink.com 1.10,2013-02-20 13:58:00,
2013-02-20 09:13:00,30.5,11.0,30.17,WNW,303,0.0,-999.0,45,-99.99,,,0.00,weatherlink.com 1.10,2013-02-20 14:13:00,
2013-02-20 09:28:00,32.4,13.0,30.18,West,264,2.0,-999.0,45,-99.99,,,0.00,weatherlink.com 1.10,2013-02-20 14:28:00,
2013-02-20 09:43:00,34.7,7.0,30.18,West,261,4.0,-999.0,32,-99.99,,,0.00,weatherlink.com 1.10,2013-02-20 14:43:00,
2013-02-20 09:58:00,36.8,7.0,30.18,SW,227,4.0,-999.0,29,-99.99,,,0.00,weatherlink.com 1.10,2013-02-20 14:58:00,
2013-02-20 10:13:00,38.3,8.0,30.19,WNW,294,1.0,-999.0,28,-99.99,,,0.00,weatherlink.com 1.10,2013-02-20 15:13:00,
2013-02-20 10:28:00,39.5,8.0,30.18,WNW,286,0.0,-999.0,27,-99.99,,,0.00,weatherlink.com 1.10,2013-02-20 15:28:00,
2013-02-20 10:43:00,40.7,5.0,30.19,West,266,0.0,-999.0,23,-99.99,,,0.00,weatherlink.com 1.10,2013-02-20 15:43:00,
2013-02-20 10:58:00,42.1,5.0,30.18,WNW,300,3.0,-999.0,21,-99.99,,,0.00,weatherlink.com 1.10,2013-02-20 15:58:00,
2013-02-20 11:14:00,43.1,2.0,30.18,SW,233,6.0,-999.0,18,-99.99,,,0.00,weatherlink.com 1.10,2013-02-20 16:14:00,
2013-02-20 11:29:00,43.8,5.0,30.18,NNW,327,11.0,-999.0,20,-99.99,,,0.00,weatherlink.com 1.10,2013-02-20 16:29:00,
2013-02-20 11:44:00,44.4,4.0,30.18,NW,325,5.0,-999.0,19,-99.99,,,0.00,weatherlink.com 1.10,2013-02-20 16:44:00,
2013-02-20 11:59:00,45.0,2.0,30.18,WNW,297,1.0,-999.0,17,-99.99,,,0.00,weatherlink.com 1.10,2013-02-20 16:59:00,
2013-02-20 12:14:00,45.8,0.0,30.17,SSW,201,0.0,-999.0,15,-99.99,,,0.00,weatherlink.com 1.10,2013-02-20 17:14:00,
2013-02-20 12:29:00,47.0,0.0,30.16,NNW,337,5.0,-999.0,14,-99.99,,,0.00,weatherlink.com 1.10,2013-02-20 17:29:00,
2013-02-20 12:44:00,49.1,0.0,30.15,SSE,156,0.0,-999.0,13,-99.99,,,0.00,weatherlink.com 1.10,2013-02-20 17:44:00,
2013-02-20 13:00:00,49.4,2.0,30.15,WSW,246,0.0,-999.0,14,-99.99,,,0.00,weatherlink.com 1.10,2013-02-20 18:00:00,
2013-02-20 13:14:00,50.0,-1.0,30.13,SW,236,0.0,-999.0,12,-99.99,,,0.00,weatherlink.com 1.10,2013-02-20 18:14:00,
2013-02-20 13:29:00,50.9,1.0,30.14,SW,220,0.0,-999.0,13,-99.99,,,0.00,weatherlink.com 1.10,2013-02-20 18:29:00,
2013-02-20 13:45:00,51.3,-4.0,30.13,SSW,200,1.0,-999.0,10,-99.99,,,0.00,weatherlink.com 1.10,2013-02-20 18:45:00,
2013-02-20 14:00:00,51.1,0.0,30.13,NW,315,0.0,-999.0,12,-99.99,,,0.00,weatherlink.com 1.10,2013-02-20 19:00:00,
2013-02-20 14:15:00,51.7,-4.0,30.12,SW,234,0.0,-999.0,10,-99.99,,,0.00,weatherlink.com 1.10,2013-02-20 19:15:00,
2013-02-20 14:30:00,52.4,-3.0,30.12,WSW,251,0.0,-999.0,10,-99.99,,,0.00,weatherlink.com 1.10,2013-02-20 19:30:00,
2013-02-20 14:45:00,51.6,-6.0,30.12,North,350,3.0,-999.0,9,-99.99,,,0.00,weatherlink.com 1.10,2013-02-20 19:45:00,
2013-02-20 15:00:00,52.0,-3.0,30.11,WNW,294,1.0,-999.0,10,-99.99,,,0.00,weatherlink.com 1.10,2013-02-20 20:00:00,
2013-02-20 15:15:00,51.6,-2.0,30.11,ENE,76,0.0,-999.0,11,-99.99,,,0.00,weatherlink.com 1.10,2013-02-20 20:15:00,
2013-02-20 15:31:00,51.3,-2.0,30.12,SE,133,0.0,-999.0,11,-99.99,,,0.00,weatherlink.com 1.10,2013-02-20 20:31:00,
2013-02-20 15:45:00,51.2,5.0,30.12,ENE,57,1.0,-999.0,15,-99.99,,,0.00,weatherlink.com 1.10,2013-02-20 20:45:00,
2013-02-20 16:15:00,50.3,4.0,30.13,NE,45,1.0,-999.0,15,-99.99,,,0.00,weatherlink.com 1.10,2013-02-20 21:15:00,
2013-02-20 16:31:00,50.2,2.0,30.14,NE,40,5.0,-999.0,14,-99.99,,,0.00,weatherlink.com 1.10,2013-02-20 21:31:00,
2013-02-20 16:46:00,49.7,5.0,30.14,NE,34,1.0,-999.0,16,-99.99,,,0.00,weatherlink.com 1.10,2013-02-20 21:46:00,
2013-02-20 17:01:00,49.3,2.0,30.14,NNE,24,1.0,-999.0,14,-99.99,,,0.00,weatherlink.com 1.10,2013-02-20 22:01:00,
2013-02-20 17:16:00,48.6,3.0,30.14,ENE,64,0.0,-999.0,15,-99.99,,,0.00,weatherlink.com 1.10,2013-02-20 22:16:00,
2013-02-20 17:31:00,48.0,4.0,30.15,NW,323,0.0,-999.0,16,-99.99,,,0.00,weatherlink.com 1.10,2013-02-20 22:31:00,
2013-02-20 17:46:00,47.8,1.0,30.16,WNW,291,0.0,-999.0,14,-99.99,,,0.00,weatherlink.com 1.10,2013-02-20 22:46:00,
2013-02-20 18:01:00,47.4,0.0,30.18,NNW,330,0.0,-999.0,14,-99.99,,,0.00,weatherlink.com 1.10,2013-02-20 23:01:00,
2013-02-20 18:16:00,46.8,1.0,30.18,NNW,330,1.0,-999.0,15,-99.99,,,0.00,weatherlink.com 1.10,2013-02-20 23:16:00,
2013-02-20 18:31:00,46.2,-1.0,30.18,NW,310,1.0,-999.0,14,-99.99,,,0.00,weatherlink.com 1.10,2013-02-20 23:31:00,
2013-02-20 18:47:00,45.9,-1.0,30.19,NW,305,2.0,-999.0,14,-99.99,,,0.00,weatherlink.com 1.10,2013-02-20 23:47:00,
2013-02-20 19:01:00,45.5,-1.0,30.18,NNW,329,2.0,-999.0,14,-99.99,,,0.00,weatherlink.com 1.10,2013-02-21 00:01:00,
2013-02-20 19:16:00,45.0,0.0,30.19,NNW,347,0.0,-999.0,15,-99.99,,,0.00,weatherlink.com 1.10,2013-02-21 00:16:00,
2013-02-20 19:32:00,44.2,-2.0,30.20,NNE,21,0.0,-999.0,14,-99.99,,,0.00,weatherlink.com 1.10,2013-02-21 00:32:00,
2013-02-20 19:47:00,43.5,-3.0,30.20,NNE,27,0.0,-999.0,14,-99.99,,,0.00,weatherlink.com 1.10,2013-02-21 00:47:00,
2013-02-20 20:02:00,42.8,-2.0,30.21,NNE,32,0.0,-999.0,15,-99.99,,,0.00,weatherlink.com 1.10,2013-02-21 01:02:00,
2013-02-20 20:17:00,42.1,-3.0,30.20,WNW,290,0.0,-999.0,15,-99.99,,,0.00,weatherlink.com 1.10,2013-02-21 01:17:00,
2013-02-20 20:32:00,41.1,-1.0,30.21,SW,225,0.0,-999.0,17,-99.99,,,0.00,weatherlink.com 1.10,2013-02-21 01:32:00,
2013-02-20 20:47:00,40.4,4.0,30.20,SW,226,0.0,-999.0,22,-99.99,,,0.00,weatherlink.com 1.10,2013-02-21 01:47:00,
2013-02-20 21:02:00,39.5,1.0,30.21,SW,225,0.0,-999.0,20,-99.99,,,0.00,weatherlink.com 1.10,2013-02-21 02:02:00,
2013-02-20 21:17:00,38.5,1.0,30.21,WNW,301,0.0,-999.0,20,-99.99,,,0.00,weatherlink.com 1.10,2013-02-21 02:17:00,
2013-02-20 21:32:00,38.2,1.0,30.21,WNW,301,0.0,-999.0,21,-99.99,,,0.00,weatherlink.com 1.10,2013-02-21 02:32:00,
2013-02-20 21:48:00,37.7,1.0,30.22,WNW,302,0.0,-999.0,21,-99.99,,,0.00,weatherlink.com 1.10,2013-02-21 02:48:00,
2013-02-20 22:02:00,37.1,2.0,30.23,WSW,257,1.0,-999.0,23,-99.99,,,0.00,weatherlink.com 1.10,2013-02-21 03:02:00,
2013-02-20 22:17:00,35.7,5.0,30.23,WSW,256,0.0,-999.0,27,-99.99,,,0.00,weatherlink.com 1.10,2013-02-21 03:17:00,
2013-02-20 22:32:00,34.9,5.0,30.23,WSW,256,0.0,-999.0,29,-99.99,,,0.00,weatherlink.com 1.10,2013-02-21 03:32:00,
2013-02-20 22:48:00,34.1,9.0,30.23,WSW,256,1.0,-999.0,35,-99.99,,,0.00,weatherlink.com 1.10,2013-02-21 03:48:00,
2013-02-20 23:03:00,32.7,6.0,30.22,West,275,0.0,-999.0,33,-99.99,,,0.00,weatherlink.com 1.10,2013-02-21 04:03:00,
2013-02-20 23:18:00,32.0,10.0,30.21,South,172,0.0,-999.0,40,-99.99,,,0.00,weatherlink.com 1.10,2013-02-21 04:18:00,
2013-02-20 23:33:00,31.3,14.0,30.21,South,172,0.0,-999.0,48,-99.99,,,0.00,weatherlink.com 1.10,2013-02-21 04:33:00,
2013-02-20 23:48:00,30.6,12.0,30.22,South,172,0.0,-999.0,47,-99.99,,,0.00,weatherlink.com 1.10,2013-02-21 04:48:00,